When you browse on this site, cookies collect data to enhance your experience and personalize the content and advertising you see.
Visit our Privacy Policy to learn more. By continuing to use the site, you agree to this use of cookies and data.
  • In Czech Republic
  • List of Countries
  • For 7 days
  • Water Temperature
  • Weather Map
  • Weather Widgets
  • user-avatar
    Login

    Hourly Weather Churapcha

    Today, 2 June, Tuesday

    Time Temperature Precipitation Wind Pressure Humidity
    00:00 +7°C° 0 mm 2 mps 740 mmHg 66%
    01:00 +6°C° 0 mm 2 mps 740 mmHg 66%
    02:00 +6°C° 0 mm 2 mps 740 mmHg 66%
    03:00 +6°C° 0 mm 1 mps 740 mmHg 66%
    04:00 +8°C° 0 mm 1 mps 740 mmHg 62%
    05:00 +9°C° 0 mm 1 mps 740 mmHg 58%
    06:00 +11°C° 0 mm 1 mps 740 mmHg 53%
    07:00 +13°C° 0 mm 1 mps 740 mmHg 49%
    08:00 +15°C° 0 mm 1 mps 740 mmHg 44%
    09:00 +16°C° 0 mm 1 mps 740 mmHg 40%
    10:00 +19°C° 0 mm 1 mps 740 mmHg 36%
    11:00 +19°C° 0 mm 2 mps 739 mmHg 33%
    12:00 +20°C° 0 mm 2 mps 739 mmHg 29%
    13:00 +20°C° 0 mm 2 mps 739 mmHg 30%
    14:00 +20°C° 0 mm 2 mps 739 mmHg 30%
    15:00 +20°C° 0 mm 2 mps 739 mmHg 31%
    16:00 +20°C° 0 mm 2 mps 739 mmHg 33%
    17:00 +19°C° 0 mm 2 mps 739 mmHg 35%
    18:00 +19°C° 0 mm 2 mps 739 mmHg 38%
    19:00 +17°C° 0 mm 2 mps 739 mmHg 48%
    20:00 +15°C° 0 mm 2 mps 739 mmHg 58%
    21:00 +13°C° 0 mm 2 mps 739 mmHg 68%
    22:00 +10°C° 0 mm 2 mps 739 mmHg 75%
    23:00 +9°C° 0 mm 2 mps 739 mmHg 81%

    Tomorrow, 3 June, Wednesday

    Time Temperature Precipitation Wind Pressure Humidity
    00:00 +9°C° 0 mm 1 mps 739 mmHg 88%
    01:00 +8°C° 0 mm 1 mps 739 mmHg 89%
    02:00 +8°C° 0 mm 1 mps 739 mmHg 89%
    03:00 +7°C° 0 mm 0 mps 739 mmHg 90%
    04:00 +9°C° 0 mm 1 mps 740 mmHg 82%
    05:00 +11°C° 0 mm 1 mps 740 mmHg 75%
    06:00 +13°C° 0 mm 1 mps 740 mmHg 68%
    07:00 +15°C° 0 mm 1 mps 740 mmHg 61%
    08:00 +18°C° 0 mm 1 mps 740 mmHg 54%
    09:00 +19°C° 0 mm 1 mps 740 mmHg 47%
    10:00 +21°C° 0 mm 1 mps 740 mmHg 43%
    11:00 +22°C° 0 mm 1 mps 740 mmHg 38%
    12:00 +23°C° 0 mm 1 mps 740 mmHg 34%
    13:00 +23°C° 0 mm 1 mps 739 mmHg 34%
    14:00 +23°C° 0 mm 1 mps 739 mmHg 33%
    15:00 +23°C° 0 mm 1 mps 739 mmHg 32%
    16:00 +23°C° 0 mm 1 mps 739 mmHg 33%
    17:00 +20°C° 0 mm 0 mps 739 mmHg 34%
    18:00 +20°C° 0 mm 0 mps 739 mmHg 35%
    19:00 +18°C° 0 mm 0 mps 739 mmHg 40%
    20:00 +19°C° 0 mm 1 mps 739 mmHg 46%
    21:00 +16°C° 0 mm 1 mps 739 mmHg 51%
    22:00 +15°C° 0 mm 1 mps 739 mmHg 54%
    23:00 +14°C° 0 mm 1 mps 739 mmHg 56%

    Day after tomorrow, 4 June, Thursday

    Time Temperature Precipitation Wind Pressure Humidity
    00:00 +13°C° 0 mm 1 mps 739 mmHg 59%
    01:00 +12°C° 0 mm 1 mps 739 mmHg 61%
    02:00 +12°C° 0 mm 1 mps 740 mmHg 64%
    03:00 +11°C° 0 mm 1 mps 740 mmHg 66%
    04:00 +13°C° 0 mm 1 mps 740 mmHg 65%
    05:00 +14°C° 0 mm 1 mps 740 mmHg 63%
    06:00 +15°C° 0 mm 1 mps 741 mmHg 61%
    07:00 +18°C° 0 mm 1 mps 741 mmHg 55%
    08:00 +20°C° 0 mm 1 mps 741 mmHg 49%
    09:00 +22°C° 0 mm 1 mps 741 mmHg 43%
    10:00 +22°C° 0 mm 1 mps 740 mmHg 41%
    11:00 +22°C° 0 mm 1 mps 740 mmHg 40%
    12:00 +23°C° 0 mm 1 mps 740 mmHg 38%
    13:00 +21°C° 0.1 mm 2 mps 740 mmHg 41%
    14:00 +20°C° 0.1 mm 2 mps 739 mmHg 45%
    15:00 +20°C° 0.1 mm 3 mps 739 mmHg 48%
    16:00 +20°C° 0.1 mm 3 mps 739 mmHg 49%
    17:00 +20°C° 0.1 mm 3 mps 739 mmHg 50%
    18:00 +20°C° 0.1 mm 3 mps 739 mmHg 51%
    19:00 +18°C° 0.1 mm 3 mps 740 mmHg 58%
    20:00 +16°C° 0.1 mm 2 mps 740 mmHg 66%
    21:00 +14°C° 0.1 mm 2 mps 740 mmHg 73%
    22:00 +13°C° 0.6 mm 2 mps 740 mmHg 80%
    23:00 +12°C° 0.6 mm 2 mps 740 mmHg 87%

    5 June, Friday

    Time Temperature Precipitation Wind Pressure Humidity
    00:00 +10°C° 0.6 mm 2 mps 740 mmHg 94%
    01:00 +10°C° 0.1 mm 2 mps 740 mmHg 94%
    02:00 +9°C° 0.1 mm 2 mps 740 mmHg 95%
    03:00 +9°C° 0.1 mm 2 mps 740 mmHg 96%
    04:00 +10°C° 0.3 mm 2 mps 741 mmHg 93%
    05:00 +12°C° 0.3 mm 2 mps 741 mmHg 90%
    06:00 +13°C° 0.3 mm 2 mps 741 mmHg 87%
    07:00 +14°C° 0.3 mm 2 mps 741 mmHg 82%
    08:00 +15°C° 0.3 mm 2 mps 741 mmHg 76%
    09:00 +16°C° 0.3 mm 3 mps 741 mmHg 71%
    10:00 +18°C° 0.2 mm 3 mps 740 mmHg 64%
    11:00 +19°C° 0.2 mm 3 mps 740 mmHg 58%
    12:00 +20°C° 0.2 mm 3 mps 740 mmHg 52%
    13:00 +20°C° 0.9 mm 2 mps 740 mmHg 53%
    14:00 +20°C° 0.9 mm 2 mps 740 mmHg 54%
    15:00 +20°C° 0.9 mm 2 mps 739 mmHg 55%
    16:00 +18°C° 0.8 mm 2 mps 739 mmHg 62%
    17:00 +16°C° 0.8 mm 2 mps 739 mmHg 70%
    18:00 +14°C° 0.8 mm 2 mps 739 mmHg 78%
    19:00 +14°C° 0.1 mm 2 mps 740 mmHg 80%
    20:00 +13°C° 0.1 mm 2 mps 740 mmHg 82%
    21:00 +13°C° 0.1 mm 2 mps 740 mmHg 84%
    22:00 +12°C° 0 mm 2 mps 740 mmHg 85%
    23:00 +10°C° 0 mm 2 mps 740 mmHg 87%

    6 June, Saturday

    Time Temperature Precipitation Wind Pressure Humidity
    00:00 +9°C° 0 mm 2 mps 740 mmHg 89%
    01:00 +8°C° 0 mm 2 mps 740 mmHg 90%
    02:00 +8°C° 0 mm 2 mps 740 mmHg 91%
    03:00 +7°C° 0 mm 2 mps 740 mmHg 93%
    04:00 +8°C° 0 mm 2 mps 740 mmHg 87%
    05:00 +10°C° 0 mm 2 mps 740 mmHg 82%
    06:00 +12°C° 0 mm 2 mps 741 mmHg 76%
    07:00 +14°C° 0 mm 2 mps 741 mmHg 68%
    08:00 +16°C° 0 mm 3 mps 740 mmHg 59%
    09:00 +17°C° 0 mm 3 mps 740 mmHg 50%
    10:00 +18°C° 0 mm 3 mps 740 mmHg 47%
    11:00 +19°C° 0 mm 3 mps 740 mmHg 44%
    12:00 +20°C° 0 mm 3 mps 740 mmHg 41%
    13:00 +21°C° 0 mm 3 mps 740 mmHg 40%
    14:00 +21°C° 0 mm 2 mps 739 mmHg 39%
    15:00 +21°C° 0 mm 2 mps 739 mmHg 39%
    16:00 +21°C° 0 mm 2 mps 739 mmHg 40%
    17:00 +21°C° 0 mm 3 mps 739 mmHg 41%
    18:00 +20°C° 0 mm 3 mps 739 mmHg 43%
    19:00 +19°C° 0 mm 2 mps 739 mmHg 49%
    20:00 +17°C° 0 mm 2 mps 739 mmHg 55%
    21:00 +15°C° 0 mm 1 mps 739 mmHg 62%
    22:00 +14°C° 0 mm 2 mps 739 mmHg 65%
    23:00 +13°C° 0 mm 2 mps 739 mmHg 67%

    7 June, Sunday

    Time Temperature Precipitation Wind Pressure Humidity
    00:00 +12°C° 0 mm 2 mps 739 mmHg 70%
    01:00 +10°C° 0 mm 2 mps 739 mmHg 75%
    02:00 +9°C° 0 mm 2 mps 739 mmHg 80%
    03:00 +8°C° 0 mm 2 mps 739 mmHg 85%
    04:00 +10°C° 0 mm 3 mps 739 mmHg 80%
    05:00 +11°C° 0 mm 3 mps 739 mmHg 74%
    06:00 +12°C° 0 mm 4 mps 739 mmHg 69%
    07:00 +14°C° 0 mm 4 mps 739 mmHg 63%
    08:00 +17°C° 0 mm 4 mps 738 mmHg 56%
    09:00 +17°C° 0 mm 5 mps 738 mmHg 50%
    10:00 +19°C° 0 mm 5 mps 738 mmHg 46%
    11:00 +21°C° 0 mm 5 mps 738 mmHg 43%
    12:00 +22°C° 0 mm 5 mps 737 mmHg 40%
    13:00 +22°C° 0 mm 5 mps 737 mmHg 39%
    14:00 +22°C° 0 mm 5 mps 737 mmHg 38%
    15:00 +23°C° 0 mm 5 mps 736 mmHg 36%
    16:00 +22°C° 0 mm 5 mps 736 mmHg 38%
    17:00 +22°C° 0 mm 5 mps 735 mmHg 40%
    18:00 +21°C° 0 mm 5 mps 735 mmHg 42%
    19:00 +20°C° 0 mm 5 mps 735 mmHg 46%
    20:00 +17°C° 0 mm 5 mps 735 mmHg 49%
    21:00 +16°C° 0 mm 5 mps 735 mmHg 53%
    22:00 +15°C° 0 mm 5 mps 735 mmHg 55%
    23:00 +14°C° 0 mm 5 mps 735 mmHg 56%
    Show more